Regional Weather Roundup
Issued by NWS

Home | Current Version | Previous Version | Graphics & Text | Print | Product List | Glossary On
Versions: 1 2 3 4 5 6 7 8 9 10 11 12 13 14 15 16 17 18 19 20 21 22 23 24 25 26 27 28 29 30 31 32 33 34 35 36 37 38 39 40 41 42 43 44 45 46 47 48 49 50
000
ASUS43 KMKX 240310
RWRWI

WISCONSIN REGIONAL WEATHER ROUNDUP
NATIONAL WEATHER SERVICE MILWAUKEE/SULLIVAN WI
900 PM CST FRI FEB 23 2018

NOTE: "FAIR" INDICATES FEW OR NO CLOUDS BELOW 12,000 FEET WITH NO
SIGNIFICANT WEATHER AND/OR OBSTRUCTIONS TO VISIBILITY.

WIZ001-002-006>008-014>016-023>028-240400-
NORTHWEST WISCONSIN

CITY           SKY/WX    TMP DP  RH WIND       PRES   REMARKS
SUPERIOR ARPT  CLOUDY    31  22  69 W7        30.22R WCI  24
ASHLAND        CLOUDY    29  23  78 SW8       30.21R WCI  21
HAYWARD        FAIR      20  18  92 S5        30.21S WCI  13
SIREN          FAIR      26  20  79 W6        30.25R WCI  19
CUMBERLAND     FAIR      12  10  92 W8        30.23R WCI   1
RICE LAKE      FAIR      16  15  95 CALM      30.26R FOG
CHETEK         FAIR      21  18  89 SW5       30.25R WCI  15
LADYSMITH      FAIR      19  17  92 SW5       30.24S WCI  12
EAU CLAIRE     FAIR      19  17  92 SW6       30.26S FOG     WCI  11
MENOMONIE      FAIR      21  18  85 SW5       30.28R WCI  15
NEW RICHMOND   FAIR      18  15  87 SW6       30.28R FOG     WCI  10
OSCEOLA        FAIR      21  18  86 SW7       30.31R WCI  13
$$

WIZ003>005-009-010-017-018-240400-
NORTH CENTRAL WISCONSIN

CITY           SKY/WX    TMP DP  RH WIND       PRES   REMARKS
MANITOWISH WTR CLOUDY    27  25  93 W8        30.18S WCI  18
ARBOR VITAE    CLOUDY    29  25  84 W6        30.18R WCI  23
WOODRUFF       CLOUDY    29  25  84 W6        30.18R WCI  23
RHINELANDER    CLOUDY    27  22  81 W8        30.19R WCI  19
EAGLE RIVER    CLOUDY    27  22  80 W7        30.17R WCI  20
LAND O LAKES   CLOUDY    28  23  82 W6        30.18S WCI  21
PHILLIPS       FAIR      20  20  97 CALM      30.20S
TOMAHAWK       FAIR      22  19  87 CALM      30.21R
MEDFORD        MOCLDY    23  20  88 W7        30.22R WCI  15
MERRILL        CLOUDY    26  22  83 W3        30.22S
$$

WIZ029-030-035-036-043>047-240400-
CENTRAL WISCONSIN

CITY           SKY/WX    TMP DP  RH WIND       PRES   REMARKS
WAUSAU         CLOUDY    27  21  78 NW8       30.21R WCI  19
MOSINEE        CLOUDY    27  23  86 NW8G17    30.24R WCI  18
MARSHFIELD     FAIR      24  20  84 W5        30.23R WCI  18
STEVENS POINT  CLOUDY    27  20  76 NW8G17    30.25S WCI  18
WAUPACA        CLOUDY    32  24  71 NW9       30.26R WCI  24
WAUTOMA        CLOUDY    30  24  78 NW7       30.27R WCI  23
WISC RAPIDS    CLOUDY    28  20  71 N9        30.27R WCI  19
CAMP DOUGLAS   CLOUDY    27  22  81 NW9       30.28R WCI  18
$$

WIZ011>013-019>022-031-037>040-048>050-240400-
NORTHEAST WISCONSIN

CITY           SKY/WX    TMP DP  RH WIND       PRES   REMARKS
ANTIGO         CLOUDY    27  22  80 NW9       30.20R WCI  18
SHAWANO        CLOUDY    33  23  66 W6        30.24R WCI  27
OCONTO         CLOUDY    33  25  71 CALM      30.23R
STURGEON BAY   CLOUDY    33  25  72 MISG      30.23R
GREEN BAY      CLOUDY    33  23  66 W12       30.24R WCI  24
MANITOWOC      CLOUDY    33  25  72 NW12      30.25R WCI  24
APPLETON       CLOUDY    30  21  69 NW12      30.22R WCI  21
CLINTONVILLE   CLOUDY    32  22  68 NW10G16   30.25R WCI  23
OSHKOSH        CLOUDY    32  24  72 NW9       30.24R WCI  24
$$

WIZ032>034-041-042-053>061-240400-
SOUTHWEST WISCONSIN

CITY           SKY/WX    TMP DP  RH WIND       PRES   REMARKS
LA CROSSE      CLOUDY    26  20  77 W8        30.31R HAZE    WCI  18
SPARTA         CLOUDY    27  22  84 NW6       30.30R WCI  20
VIROQUA        CLOUDY    25  24  95 N7        30.26R WCI  17
BOSCOBEL       FAIR      29  22  75 NW5       30.29R WCI  24
PRAIRIE DU CHI FAIR      28  22  78 NW7       30.29R WCI  21
PLATTEVILLE    FAIR      29  26  89 NW8       30.25S WCI  21
$$

WIZ056-057-062-063-064-067-068-240400-
SOUTH CENTRAL WISCONSIN

CITY           SKY/WX    TMP DP  RH WIND       PRES   REMARKS
REEDSBURG      FAIR      27  23  84 NW3       30.26R
BARABOO/DELLS  FAIR      28  23  84 NW3       30.26R
LONE ROCK      FAIR      30  24  78 NW8       30.27S WCI  22
MINERAL POINT  FAIR      30  30 100 NW3       30.24R
MADISON        FAIR      30  25  81 NW6       30.25S WCI  24
MIDDLETON      FAIR      32  28  83 NW6       30.25R WCI  26
WATERTOWN      FAIR      31  28  88 N7        30.24R WCI  25
MONROE         FAIR      30  27  86 W5        30.24S WCI  25
JANESVILLE     CLOUDY    32  32 100 VRB6      30.25R WCI  26
$$

WIZ051-052-058>065-066-070>072-240400-
SOUTHEAST WISCONSIN

CITY           SKY/WX    TMP DP  RH WIND       PRES   REMARKS
MILWAUKEE      CLOUDY    36  30  79 W6        30.24R WCI  31
WAUKESHA       CLOUDY    32  27  80 W5        30.24R WCI  27
MILWAUKEE/TIMM CLOUDY    34  27  75 CALM      30.25R
RACINE         FAIR      31  29  92 CALM      30.27R
BURLINGTON     FAIR      31  29  90 CALM      30.26R
KENOSHA        FAIR      30  26  85 W6        30.25R WCI  24
FOND DU LAC    CLOUDY    32  22  66 NW9       30.25R WCI  24
SHEBOYGAN      CLOUDY    33  27  78 NW8       30.24R WCI  26
WEST BEND      FAIR      32  28  86 NW8       30.23S WCI  25
JUNEAU         FAIR      30  25  81 NW5       30.25S WCI  25
$$

LSZ147-162-240400-
LAKE SUPERIOR

STATION/POSITION TIME  TEMP    WIND        PRES    WAVE
                       AIR SEA DIR/SP/G            HT/PER
                 (UTC) (F)     (DEG/KT/KT) (MB)    (FT/S)
DEVILS ISLAND    0300   30     280/ 12/ 14 1023.4R
SAXON HARBOR     0240   31     210/  5/  7 1022.4S
$$

LMZ867-665-643>646-240400-
LAKE MICHIGAN

STATION/POSITION TIME  TEMP    WIND        PRES    WAVE
                       AIR SEA DIR/SP/G            HT/PER
                 (UTC) (F)     (DEG/KT/KT) (MB)    (FT/S)
NORTHPORT PIER   0240   34                 1022.4R
KEWAUNEE LAKESHO 0248   33     290/  6/ 10 1022.9R
SHEBOYGAN LAKESH 0300   33     330/  8/ 10 1024.9R
PORT WASHINGTON  0240   34     330/  6/  8 1025.1R
KENOSHA   LAKESH 0300   35     260/  3/  4 1024.7
$$

TC  - TEMPERATURE IN CELSIUS
VSB - VISIBILITY IN STATUTE MILES
WCI - WIND CHILL INDEX
HX  - HEAT INDEX




USA.gov is the U.S. government's official web portal to all federal, state and local government web resources and services.